Location: Dzierzno
(50.6159°N, 19.2852°E)
Time: 20:13:32
(UTC+00:00)

Cosmos 2278 Rocket - Pass Details

Date: 18 November 2025
Orbit: 841 x 843 km, 71.0° (Epoch: 10 December)

Event Time Altitude Azimuth Distance (km) Brightness Sun altitude
Rises 15:53:22 0° 187° (S) 3,384 5.7 -9.6°
Reaches altitude 10° 15:55:53 10° 181° (S) 2,454 4.9 -9.9°
Maximum altitude 16:01:12 45° 110° (ESE) 1,133 2.5 -10.7°
Drops below altitude 10° 16:06:34 10° 39° (NE) 2,470 4.1 -11.6°
Enters shadow 16:06:46 - 38° (NE) 2,543 4.2 -11.6°
